565  
ASUS42 KKEY 200710  
RWRKEY  
 
FLORIDA KEYS REGIONAL WEATHER ROUNDUP  
NATIONAL WEATHER SERVICE KEY WEST FLORIDA  
300 AM EDT WED MAR 20 2019  
   
..SOUTH FLORIDA AND THE KEYS
 
 
 
CITY SKY/WX TMP DP RH WIND PRES REMARKS
 
FORT MYERS CLOUDY 61 59 93 N9 30.02F  
SW REGIONAL AP CLOUDY 61 59 93 N8 30.03F  
NAPLES LGT RAIN N/A N/A N/A MISG 30.01S  
MIAMI CLOUDY 67 66 97 E3 29.97F  
WEST KENDALL CLOUDY 67 65 93 NE3 29.97F  
HOMESTEAD LGT RAIN 68 65 90 NE8 29.96F  
MARATHON LGT RAIN 70 65 84 NE14 29.96F  
KEY WEST INTL LGT RAIN 68 66 93 NE7 29.96F  
   
..INTERNATIONAL WEATHER
 
 
 
CITY SKY/WX TMP DP RH WIND PRES REMARKS
 
HAVANA LGT RAIN 70 68 94 E5 29.94S  
VARADERO MOCLDY 70 68 94 S5 29.94F  
CANCUN PTCLDY 68 68 100 W6 30.00F  
COZUMEL MOCLDY 75 72 88 N8 29.98F  
KINGSTON PTCLDY 77 63 61 N6 29.94F  
 
ADJACENT COASTAL WATERS...  
 
STATION/POSITION TIME SKY/WX TEMP WIND PRES WAVE
 
AIR SEA DIR/SP/G HT/PER  
(UTC) (F) (DEG/KT/KT) (MB) (FT/S)  
PULASKI SHOAL LI 0700 71 40/ 18/ 20 1015.3F  
SAND KEY 0650 69 1014.5F  
SOMBRERO KEY 0650 69 1013.9F  
LONG KEY NOT AVBL  
MOLASSES REEF NOT AVBL  
FOWEY ROCKS 0600 71 76 60/ 19/ 22 1015.7F  
BUOY 42095 0700 78 N/A 3/ 7  
BUOY 42097 0630 75 N/A 6/ 7  
 

 
 
 
CLICK HERE TO GO TO PREVIOUS BULLETINS.

The Nexlab FL Page Main Text Page